TimeMST,TemperatureF,Dew PointF,Humidity,Sea Level PressureIn,VisibilityMPH,Wind Direction,Wind SpeedMPH,Gust SpeedMPH,PrecipitationIn,Events,Conditions,WindDirDegrees,DateUTC
12:53 AM,48.0,39.0,71,29.81,10.0,SSE,5.8,-,0.00,,Overcast,160,2012-11-18 07:53:00
1:53 AM,45.0,41.0,86,29.85,10.0,WSW,15.0,24.2,0.10,Rain,Light Rain,250,2012-11-18 08:53:00
2:53 AM,44.1,41.0,89,29.84,10.0,East,4.6,-,0.00,,Partly Cloudy,100,2012-11-18 09:53:00
3:53 AM,45.0,39.9,82,29.84,10.0,South,9.2,-,0.00,Rain,Light Rain,170,2012-11-18 10:53:00
4:53 AM,45.0,39.9,82,29.86,10.0,West,8.1,-,0.00,,Overcast,260,2012-11-18 11:53:00
5:53 AM,41.0,39.0,93,29.91,10.0,West,11.5,20.7,N/A,,Mostly Cloudy,260,2012-11-18 12:53:00
6:53 AM,39.0,37.0,93,29.94,10.0,SW,13.8,-,0.00,,Overcast,230,2012-11-18 13:53:00
7:53 AM,37.9,34.0,86,29.99,10.0,SSW,9.2,-,0.01,Rain,Light Rain,200,2012-11-18 14:53:00
8:30 AM,37.4,30.2,75,30.00,10.0,SSW,10.4,18.4,0.00,,Overcast,210,2012-11-18 15:30:00
8:53 AM,37.0,30.9,79,30.01,10.0,South,10.4,-,0.00,,Overcast,180,2012-11-18 15:53:00
9:53 AM,37.0,34.0,89,30.03,10.0,South,8.1,-,N/A,,Overcast,180,2012-11-18 16:53:00
10:53 AM,39.9,32.0,73,30.04,10.0,SSW,10.4,-,N/A,,Partly Cloudy,200,2012-11-18 17:53:00
11:53 AM,42.1,33.1,70,30.05,10.0,SW,4.6,-,N/A,,Mostly Cloudy,220,2012-11-18 18:53:00
12:53 PM,42.1,32.0,67,30.03,10.0,SSW,4.6,-,N/A,,Overcast,210,2012-11-18 19:53:00
1:53 PM,43.0,33.1,68,30.03,10.0,SW,4.6,-,N/A,,Mostly Cloudy,220,2012-11-18 20:53:00
2:53 PM,43.0,33.1,68,30.03,10.0,Calm,Calm,-,N/A,,Overcast,0,2012-11-18 21:53:00
3:53 PM,43.0,34.0,71,30.06,10.0,South,3.5,-,N/A,,Mostly Cloudy,190,2012-11-18 22:53:00
4:53 PM,42.1,34.0,73,30.06,10.0,Calm,Calm,-,N/A,,Overcast,0,2012-11-18 23:53:00
5:53 PM,39.9,35.1,83,30.09,10.0,ESE,6.9,-,N/A,,Scattered Clouds,110,2012-11-19 00:53:00
6:53 PM,37.9,35.1,89,30.09,10.0,East,6.9,-,N/A,,Clear,100,2012-11-19 01:53:00
7:53 PM,39.9,35.1,83,30.10,10.0,East,5.8,-,N/A,,Overcast,80,2012-11-19 02:53:00
8:53 PM,41.0,35.1,79,30.10,10.0,East,6.9,-,0.00,,Overcast,90,2012-11-19 03:53:00
9:53 PM,41.0,37.0,86,30.14,10.0,Calm,Calm,-,0.02,Rain,Light Rain,0,2012-11-19 04:53:00
10:53 PM,39.0,37.0,93,30.14,10.0,ENE,5.8,-,0.03,,Overcast,70,2012-11-19 05:53:00
11:53 PM,37.9,37.0,97,30.14,10.0,NNE,9.2,-,N/A,,Overcast,30,2012-11-19 06:53:00